UBE207 UKLL-LKPR

Flight info

Callsign UBE207
Flight time 1h 2m
Altitude 32000
Route DIBED L984 PADKA DCT VLM
Aircraft B738/M-SDE2E3FGHIRWXY/LB1

Departure

Time 2026-04-19 02:28
Airport Lviv International Airport (UKLL)

Arrival

Time 2026-04-19 03:30
Airport Václav Havel Airport Prague (LKPR)
Time Latitude Longitude Altitude Speed Heading
2026-04-19 02:14 49.81233 23.95958 1062 ft 0 kts 46°
2026-04-19 02:22 49.81226 23.95948 1065 ft 3 kts 46°
2026-04-19 02:22 49.81212 23.95925 1066 ft 3 kts 46°
2026-04-19 02:22 49.81200 23.95905 1065 ft 3 kts 46°
2026-04-19 02:22 49.81188 23.95883 1068 ft 3 kts 77°
2026-04-19 02:23 49.81189 23.95858 1065 ft 3 kts 128°
2026-04-19 02:23 49.81203 23.95836 1066 ft 3 kts 137°
2026-04-19 02:23 49.81207 23.95831 1066 ft 1 kts 135°
2026-04-19 02:25 49.81196 23.95848 1064 ft 14 kts 135°
2026-04-19 02:25 49.81112 23.95975 1065 ft 17 kts 136°
2026-04-19 02:25 49.81007 23.96033 1064 ft 16 kts 180°
2026-04-19 02:25 49.80895 23.96032 1063 ft 16 kts 180°
2026-04-19 02:26 49.80781 23.96134 1064 ft 28 kts 136°
2026-04-19 02:26 49.80638 23.96348 1065 ft 28 kts 135°
2026-04-19 02:26 49.80591 23.96620 1064 ft 26 kts 91°
2026-04-19 02:26 49.80490 23.96745 1064 ft 17 kts 213°
2026-04-19 02:27 49.80464 23.96612 1064 ft 15 kts 321°
2026-04-19 02:27 49.80503 23.96547 1063 ft 0 kts 315°
2026-04-19 02:27 49.80512 23.96533 1064 ft 12 kts 315°
2026-04-19 02:27 49.80748 23.96178 1064 ft 83 kts 316°
2026-04-19 02:28 49.81324 23.95311 1064 ft 145 kts 316°
2026-04-19 02:28 49.82164 23.94062 1263 ft 180 kts 317°
2026-04-19 02:28 49.83061 23.92822 2186 ft 177 kts 319°
2026-04-19 02:28 49.84044 23.91468 2794 ft 192 kts 319°
2026-04-19 02:29 49.85044 23.90096 3453 ft 198 kts 317°
2026-04-19 02:29 49.86090 23.88574 3623 ft 219 kts 317°
2026-04-19 02:29 49.87245 23.86881 3856 ft 238 kts 317°
2026-04-19 02:29 49.88503 23.85048 4145 ft 255 kts 317°
2026-04-19 02:30 49.89814 23.83142 4864 ft 259 kts 316°
2026-04-19 02:30 49.90842 23.80871 5657 ft 261 kts 289°
2026-04-19 02:30 49.91018 23.78082 6462 ft 265 kts 266°
2026-04-19 02:30 49.90879 23.76194 6932 ft 267 kts 266°
2026-04-19 02:31 49.90688 23.73310 7627 ft 270 kts 268°
2026-04-19 02:31 49.90547 23.70385 8356 ft 272 kts 269°
2026-04-19 02:31 49.90449 23.67440 9090 ft 275 kts 270°
2026-04-19 02:31 49.90380 23.64458 9824 ft 277 kts 271°
2026-04-19 02:32 49.90332 23.61435 10370 ft 286 kts 272°
2026-04-19 02:32 49.90295 23.58229 10537 ft 308 kts 272°
2026-04-19 02:32 49.90263 23.54791 10705 ft 328 kts 272°
2026-04-19 02:32 49.90232 23.51151 10862 ft 347 kts 272°
2026-04-19 02:33 49.90199 23.47305 11011 ft 365 kts 272°
2026-04-19 02:33 49.90141 23.43312 11385 ft 375 kts 270°
2026-04-19 02:33 49.90013 23.39259 11967 ft 377 kts 269°
2026-04-19 02:33 49.89862 23.35194 12640 ft 378 kts 269°
2026-04-19 02:34 49.89707 23.31107 13295 ft 381 kts 269°
2026-04-19 02:34 49.89556 23.26987 13920 ft 383 kts 269°
2026-04-19 02:34 49.89409 23.22887 14478 ft 386 kts 269°
2026-04-19 02:34 49.89261 23.18715 15050 ft 390 kts 269°
2026-04-19 02:35 49.89113 23.14503 15633 ft 393 kts 269°
2026-04-19 02:35 49.88962 23.10261 16195 ft 396 kts 269°
2026-04-19 02:35 49.88809 23.05982 16751 ft 399 kts 269°
2026-04-19 02:35 49.88785 23.01667 17291 ft 401 kts 274°
2026-04-19 02:36 49.88922 22.97335 17848 ft 404 kts 275°
2026-04-19 02:36 49.89099 22.92963 18370 ft 407 kts 276°
2026-04-19 02:36 49.89270 22.88554 18823 ft 410 kts 275°
2026-04-19 02:36 49.89420 22.84115 19288 ft 413 kts 275°
2026-04-19 02:37 49.89554 22.79650 19737 ft 416 kts 275°
2026-04-19 02:37 49.89679 22.75152 20177 ft 419 kts 275°
2026-04-19 02:37 49.89801 22.70619 20617 ft 422 kts 275°
2026-04-19 02:37 49.89921 22.66060 21043 ft 425 kts 275°
2026-04-19 02:38 49.90044 22.61463 21464 ft 427 kts 275°
2026-04-19 02:38 49.90167 22.56898 21873 ft 430 kts 275°
2026-04-19 02:38 49.90292 22.52194 22295 ft 432 kts 275°
2026-04-19 02:38 49.90414 22.47581 22647 ft 436 kts 275°
2026-04-19 02:39 49.90536 22.42874 23022 ft 438 kts 275°
2026-04-19 02:39 49.90656 22.38135 23412 ft 441 kts 275°
2026-04-19 02:39 49.90775 22.33375 23756 ft 443 kts 275°
2026-04-19 02:39 49.90893 22.28596 24063 ft 445 kts 275°
2026-04-19 02:40 49.91009 22.23763 24390 ft 447 kts 275°
2026-04-19 02:40 49.91123 22.18939 24710 ft 449 kts 275°
2026-04-19 02:40 49.91236 22.14082 25018 ft 450 kts 275°
2026-04-19 02:40 49.91347 22.09215 25314 ft 452 kts 275°
2026-04-19 02:41 49.91456 22.04336 25570 ft 454 kts 275°
2026-04-19 02:41 49.91565 21.99414 25800 ft 457 kts 275°
2026-04-19 02:41 49.91671 21.94474 26067 ft 459 kts 275°
2026-04-19 02:41 49.91776 21.89531 26439 ft 458 kts 275°
2026-04-19 02:42 49.91878 21.84594 26885 ft 456 kts 274°
2026-04-19 02:42 49.91977 21.79703 27372 ft 452 kts 274°
2026-04-19 02:42 49.92075 21.74833 27810 ft 451 kts 274°
2026-04-19 02:42 49.92171 21.69960 28192 ft 450 kts 274°
2026-04-19 02:43 49.92261 21.65110 28578 ft 449 kts 274°
2026-04-19 02:43 49.92345 21.60274 29018 ft 448 kts 274°
2026-04-19 02:43 49.92424 21.55515 29463 ft 446 kts 274°
2026-04-19 02:43 49.92503 21.50708 29885 ft 444 kts 274°
2026-04-19 02:44 49.92582 21.45927 30264 ft 443 kts 274°
2026-04-19 02:44 49.92658 21.41140 30610 ft 442 kts 274°
2026-04-19 02:44 49.92731 21.36381 30960 ft 440 kts 274°
2026-04-19 02:44 49.92801 21.31652 31360 ft 437 kts 274°
2026-04-19 02:45 49.92869 21.26934 31729 ft 435 kts 274°
2026-04-19 02:45 49.92935 21.22238 32031 ft 435 kts 274°
2026-04-19 02:45 49.93062 21.12791 32095 ft 439 kts 273°
2026-04-19 02:46 49.93176 21.03339 32083 ft 435 kts 273°
2026-04-19 02:46 49.93281 20.93984 32096 ft 433 kts 273°
2026-04-19 02:47 49.93381 20.84640 32094 ft 432 kts 273°
2026-04-19 02:47 49.93475 20.75303 32092 ft 432 kts 273°
2026-04-19 02:48 49.93559 20.65979 32089 ft 432 kts 272°
2026-04-19 02:48 49.93636 20.56643 32094 ft 433 kts 272°
2026-04-19 02:49 49.93707 20.47291 32095 ft 434 kts 272°
2026-04-19 02:49 49.93771 20.37982 32090 ft 435 kts 272°
2026-04-19 02:50 49.93827 20.28591 32090 ft 436 kts 272°
2026-04-19 02:51 49.93899 20.14453 32097 ft 436 kts 272°
2026-04-19 02:51 49.94027 20.05025 32099 ft 437 kts 272°
2026-04-19 02:52 49.94018 19.95591 32099 ft 437 kts 271°
2026-04-19 02:52 49.94000 19.86156 32098 ft 437 kts 271°
2026-04-19 02:53 49.94027 19.76730 32100 ft 436 kts 272°
2026-04-19 02:53 49.94054 19.67308 32087 ft 436 kts 271°
2026-04-19 02:54 49.94069 19.57954 32090 ft 436 kts 271°
2026-04-19 02:54 49.94073 19.48550 32091 ft 436 kts 271°
2026-04-19 02:55 49.94070 19.39150 32087 ft 435 kts 271°
2026-04-19 02:55 49.94059 19.29752 32077 ft 435 kts 271°
2026-04-19 02:56 49.94040 19.20363 32085 ft 434 kts 271°
2026-04-19 02:56 49.94016 19.10986 32085 ft 435 kts 271°
2026-04-19 02:57 49.93995 19.01599 32086 ft 435 kts 271°
2026-04-19 02:57 49.93999 18.92209 32079 ft 435 kts 271°
2026-04-19 02:58 49.93949 18.82814 32084 ft 435 kts 270°
2026-04-19 02:58 49.93865 18.73417 32081 ft 436 kts 270°
2026-04-19 02:59 49.93781 18.64004 32080 ft 436 kts 270°
2026-04-19 02:59 49.93696 18.54653 32079 ft 436 kts 270°
2026-04-19 03:00 49.93602 18.45242 32083 ft 436 kts 270°
2026-04-19 03:00 49.93494 18.35822 32083 ft 435 kts 270°
2026-04-19 03:01 49.93338 18.26428 32083 ft 435 kts 268°
2026-04-19 03:01 49.92836 18.17062 32081 ft 435 kts 265°
2026-04-19 03:02 49.92236 18.07719 32083 ft 435 kts 265°
2026-04-19 03:02 49.91648 17.98385 32084 ft 434 kts 266°
2026-04-19 03:03 49.91076 17.89058 32088 ft 434 kts 266°
2026-04-19 03:03 49.90504 17.79722 32094 ft 435 kts 266°
2026-04-19 03:04 49.89925 17.70386 32090 ft 435 kts 266°
2026-04-19 03:04 49.89338 17.61042 32091 ft 435 kts 266°
2026-04-19 03:05 49.88744 17.51701 32080 ft 436 kts 265°
2026-04-19 03:05 49.88145 17.42415 32082 ft 435 kts 265°
2026-04-19 03:06 49.87535 17.33074 32077 ft 435 kts 265°
2026-04-19 03:06 49.86918 17.23746 32091 ft 435 kts 265°
2026-04-19 03:07 49.86294 17.14432 32080 ft 434 kts 265°
2026-04-19 03:07 49.85663 17.05121 32069 ft 434 kts 265°
2026-04-19 03:08 49.85026 16.95827 32084 ft 433 kts 265°
2026-04-19 03:08 49.84382 16.86551 32072 ft 432 kts 265°
2026-04-19 03:09 49.83732 16.77299 32072 ft 431 kts 265°
2026-04-19 03:09 49.83077 16.68082 32074 ft 431 kts 265°
2026-04-19 03:10 49.82412 16.58811 31445 ft 436 kts 264°
2026-04-19 03:10 49.82075 16.54156 30760 ft 434 kts 264°
2026-04-19 03:10 49.81740 16.49565 30002 ft 435 kts 264°
2026-04-19 03:10 49.81394 16.44851 29102 ft 435 kts 264°
2026-04-19 03:11 49.81052 16.40207 28263 ft 434 kts 264°
2026-04-19 03:11 49.80707 16.35562 27398 ft 434 kts 264°
2026-04-19 03:11 49.80365 16.30969 26497 ft 436 kts 265°
2026-04-19 03:11 49.80016 16.26307 25677 ft 436 kts 265°
2026-04-19 03:12 49.79662 16.21610 25046 ft 431 kts 265°
2026-04-19 03:12 49.79319 16.17086 24416 ft 427 kts 265°
2026-04-19 03:12 49.78973 16.12547 23779 ft 424 kts 265°
2026-04-19 03:12 49.78627 16.08028 23030 ft 421 kts 265°
2026-04-19 03:13 49.78281 16.03536 22349 ft 417 kts 265°
2026-04-19 03:13 49.77939 15.99111 21716 ft 412 kts 264°
2026-04-19 03:13 49.77598 15.94731 21089 ft 407 kts 264°
2026-04-19 03:13 49.77260 15.90402 20453 ft 403 kts 264°
2026-04-19 03:14 49.76924 15.86117 19844 ft 400 kts 264°
2026-04-19 03:14 49.76589 15.81867 19240 ft 396 kts 264°
2026-04-19 03:14 49.76255 15.77649 18637 ft 394 kts 264°
2026-04-19 03:14 49.75921 15.73456 17995 ft 391 kts 264°
2026-04-19 03:15 49.75589 15.69299 17330 ft 388 kts 264°
2026-04-19 03:15 49.75369 15.66563 16912 ft 386 kts 264°
2026-04-19 03:15 49.75038 15.62460 16314 ft 382 kts 264°
2026-04-19 03:15 49.74709 15.58395 15708 ft 379 kts 264°
2026-04-19 03:16 49.74275 15.53054 14934 ft 376 kts 264°
2026-04-19 03:16 49.74054 15.50354 14551 ft 374 kts 264°
2026-04-19 03:16 49.73732 15.46417 13976 ft 371 kts 264°
2026-04-19 03:16 49.73402 15.42417 13339 ft 369 kts 264°
2026-04-19 03:17 49.73082 15.38538 12718 ft 367 kts 264°
2026-04-19 03:17 49.72758 15.34645 12115 ft 364 kts 264°
2026-04-19 03:17 49.72436 15.30781 11546 ft 361 kts 264°
2026-04-19 03:17 49.72118 15.26979 11273 ft 350 kts 264°
2026-04-19 03:18 49.71809 15.23312 11114 ft 337 kts 264°
2026-04-19 03:18 49.71512 15.19782 10981 ft 325 kts 264°
2026-04-19 03:18 49.71223 15.16374 10829 ft 314 kts 264°
2026-04-19 03:18 49.70943 15.13080 10702 ft 304 kts 264°
2026-04-19 03:19 49.70674 15.09902 10576 ft 293 kts 265°
2026-04-19 03:19 49.70817 15.06838 10436 ft 282 kts 288°
2026-04-19 03:19 49.71627 15.04150 10328 ft 273 kts 302°
2026-04-19 03:19 49.72735 15.01824 10221 ft 265 kts 307°
2026-04-19 03:20 49.73876 14.99631 10082 ft 258 kts 307°
2026-04-19 03:20 49.74993 14.97485 9830 ft 256 kts 307°
2026-04-19 03:20 49.76092 14.95339 9557 ft 253 kts 307°
2026-04-19 03:20 49.77174 14.93199 9288 ft 252 kts 307°
2026-04-19 03:21 49.78244 14.91068 9015 ft 250 kts 306°
2026-04-19 03:21 49.79304 14.88952 8755 ft 248 kts 306°
2026-04-19 03:21 49.80352 14.86848 8501 ft 246 kts 306°
2026-04-19 03:21 49.81391 14.84745 8225 ft 245 kts 306°
2026-04-19 03:22 49.82420 14.82657 7974 ft 243 kts 306°
2026-04-19 03:22 49.83438 14.80591 7727 ft 241 kts 306°
2026-04-19 03:22 49.84462 14.78511 7481 ft 246 kts 306°
2026-04-19 03:22 49.85517 14.76367 7213 ft 253 kts 306°
2026-04-19 03:23 49.86597 14.74172 6950 ft 260 kts 306°
2026-04-19 03:23 49.87710 14.71932 6671 ft 263 kts 309°
2026-04-19 03:23 49.88895 14.69833 6382 ft 262 kts 310°
2026-04-19 03:23 49.90036 14.67709 6207 ft 249 kts 307°
2026-04-19 03:24 49.91057 14.65660 6148 ft 231 kts 305°
2026-04-19 03:24 49.91991 14.63724 6045 ft 217 kts 305°
2026-04-19 03:24 49.92868 14.61891 5962 ft 208 kts 305°
2026-04-19 03:24 49.93726 14.60096 5844 ft 209 kts 305°
2026-04-19 03:25 49.94599 14.58268 5622 ft 212 kts 305°
2026-04-19 03:25 49.95483 14.56418 5381 ft 214 kts 305°
2026-04-19 03:25 49.96374 14.54558 5105 ft 214 kts 305°
2026-04-19 03:25 49.97252 14.52726 4864 ft 210 kts 305°
2026-04-19 03:26 49.98114 14.50929 4630 ft 205 kts 305°
2026-04-19 03:26 49.98943 14.49198 4528 ft 190 kts 305°
2026-04-19 03:26 49.99724 14.47571 4317 ft 186 kts 305°
2026-04-19 03:26 50.00497 14.45958 4079 ft 186 kts 305°
2026-04-19 03:27 50.01269 14.44349 3837 ft 186 kts 305°
2026-04-19 03:27 50.02043 14.42734 3586 ft 186 kts 305°
2026-04-19 03:27 50.02815 14.41127 3340 ft 185 kts 305°
2026-04-19 03:27 50.03586 14.39522 3088 ft 184 kts 305°
2026-04-19 03:28 50.04315 14.38006 2849 ft 166 kts 306°
2026-04-19 03:28 50.04980 14.36623 2620 ft 153 kts 306°
2026-04-19 03:28 50.05609 14.35313 2440 ft 151 kts 305°
2026-04-19 03:28 50.06241 14.33998 2239 ft 151 kts 305°
2026-04-19 03:29 50.06868 14.32692 2015 ft 150 kts 305°
2026-04-19 03:29 50.07482 14.31424 1790 ft 148 kts 306°
2026-04-19 03:29 50.08100 14.30145 1581 ft 148 kts 305°
2026-04-19 03:29 50.08721 14.28849 1372 ft 151 kts 304°
2026-04-19 03:30 50.09352 14.27540 1220 ft 147 kts 303°
2026-04-19 03:30 50.09906 14.26390 1198 ft 113 kts 307°
2026-04-19 03:30 50.10227 14.25749 1186 ft 40 kts 320°
2026-04-19 03:30 50.10428 14.25663 1182 ft 21 kts
2026-04-19 03:31 50.10515 14.25703 1178 ft 9 kts 27°
2026-04-19 03:31 50.10525 14.25711 1173 ft 1 kts 28°
2026-04-19 03:31 50.10531 14.25716 1173 ft 2 kts 28°
2026-04-19 03:31 50.10545 14.25729 1175 ft 1 kts 32°
2026-04-19 03:32 50.10550 14.25734 1174 ft 2 kts 32°
2026-04-19 03:32 50.10570 14.25755 1173 ft 6 kts 34°
2026-04-19 03:32 50.10639 14.25828 1173 ft 17 kts 34°
2026-04-19 03:32 50.10762 14.25958 1171 ft 23 kts 34°
2026-04-19 03:33 50.10894 14.26100 1168 ft 23 kts 34°
2026-04-19 03:33 50.11023 14.26237 1167 ft 22 kts 34°
2026-04-19 03:33 50.11077 14.26436 1171 ft 21 kts 96°
2026-04-19 03:33 50.11101 14.26656 1170 ft 21 kts 64°
2026-04-19 03:34 50.11161 14.26857 1171 ft 20 kts 66°
2026-04-19 03:34 50.11155 14.27008 1172 ft 15 kts 146°
2026-04-19 03:34 50.11105 14.27008 1172 ft 5 kts 226°
2026-04-19 03:34 50.11087 14.26959 1170 ft 5 kts 244°
2026-04-19 03:35 50.11084 14.26951 1171 ft 0 kts 244°